DW9996 Weather Reports


time (UTC)temp
F
wind
direction
speed
knots
gust
knots
rain 1hr
in
rain 24hr
in
rain mn
in
humidity
%
barometer
mb
20260510121558 44 194 4.3 6.1 0.00 0.01 0.00 75 1015.5
20260510120055 44 207 2.6 4.3 0.00 0.01 0.00 76 1015.5
20260510114555 44 200 0.9 4.3 0.00 0.01 0.00 76 1015.5
20260510113052 45 188 3.5 5.2 0.00 0.01 0.00 75 1015.6
20260510111552 45 202 4.3 7.8 0.00 0.01 0.00 76 1015.6
20260510110052 44 181 1.7 6.1 0.00 0.01 0.00 75 1015.7
20260510104559 44 146 1.7 5.2 0.00 0.01 0.00 75 1015.8
20260510103049 44 141 2.6 5.2 0.00 0.01 0.00 71 1015.7
20260510101552 42 237 1.7 2.6 0.00 0.01 0.00 66 1015.9
20260510100053 41 309 0.0 0.9 0.00 0.01 0.00 68 1016.0
20260510094556 40 309 0.9 2.6 0.00 0.01 0.00 66 1015.9
20260510093049 39 309 0.0 0.0 0.00 0.01 0.00 68 1015.9
20260510091543 39 309 0.9 2.6 0.00 0.01 0.00 69 1015.9
20260510090042 39 309 0.0 1.7 0.00 0.01 0.00 69 1016.0
20260510084556 39 309 0.9 3.5 0.00 0.01 0.00 71 1016.0
20260510083042 41 309 0.9 2.6 0.00 0.01 0.00 72 1015.9
20260510081536 41 309 1.7 3.5 0.00 0.01 0.00 75 1015.9
20260510080028 44 24 0.9 2.6 0.00 0.01 0.00 75 1015.8
20260510074524 46 23 0.9 2.6 0.00 0.01 0.00 75 1016.0
20260510073034 47 31 0.9 2.6 0.00 0.01 0.00 75 1016.0
20260510071520 47 51 1.7 3.5 0.00 0.01 0.00 74 1015.8
20260510070018 47 17 0.0 2.6 0.00 0.01 0.00 75 1015.8
20260510064515 48 32 2.6 4.3 0.00 0.01 0.00 74 1015.7
20260510063014 49 45 0.0 0.9 0.00 0.01 0.00 74 1015.7
20260510061513 49 43 0.0 3.5 0.00 0.01 0.00 74 1015.6
20260510060016 48 41 1.7 3.5 0.00 0.01 0.00 74 1015.7
20260510054509 49 40 1.7 3.5 0.00 0.01 0.01 74 1015.5
20260510053009 49 74 1.7 4.3 0.00 0.01 0.01 74 1015.5
20260510051507 49 152 0.0 1.7 0.00 0.01 0.01 74 1015.3
20260510050010 49 133 1.7 2.6 0.00 0.01 0.01 73 1015.3
20260510044505 49 133 0.0 1.7 0.00 0.01 0.01 72 1015.3
20260510043005 50 130 0.9 2.6 0.00 0.01 0.01 73 1015.2
20260510041504 50 124 0.9 2.6 0.00 0.01 0.01 73 1015.2
20260510040002 51 126 0.9 2.6 0.00 0.01 0.01 73 1015.1
20260510034502 51 126 0.9 3.5 0.00 0.01 0.01 73 1015.1
20260510033108 52 142 2.6 4.3 0.00 0.01 0.01 73 1014.8
20260510031606 52 130 0.9 3.5 0.00 0.01 0.01 73 1014.7
20260510030059 54 138 0.9 3.5 0.00 0.01 0.01 71 1014.4
20260510024557 55 113 1.7 3.5 0.00 0.01 0.01 70 1014.2
20260510023055 57 122 0.0 3.5 0.00 0.01 0.01 68 1014.1
20260510021555 57 121 2.6 4.3 0.01 0.01 0.01 66 1014.1
20260510020053 59 108 4.3 8.7 0.01 0.01 0.01 60 1014.1
20260510014555 58 108 2.6 6.1 0.01 0.01 0.01 59 1014.2
20260510013106 58 149 1.7 3.5 0.01 0.01 0.01 58 1014.4
20260510011551 59 272 0.9 8.7 0.00 0.00 0.00 59 1014.5
20260510010048 63 340 1.7 3.5 0.00 0.00 0.00 45 1014.1
20260510004547 64 238 0.0 0.0 0.00 0.00 0.00 38 1014.0
20260510003050 64 225 0.0 3.5 0.00 0.00 0.00 39 1013.7
20260510001547 65 168 0.9 2.6 0.00 0.00 0.00 39 1013.7
20260510000046 65 212 0.9 3.5 0.00 0.00 0.00 39 1013.7
20260509234546 65 246 3.5 6.1 0.00 0.00 0.00 38 1013.6
20260509233045 65 228 0.9 4.3 0.00 0.00 0.00 39 1013.6
20260509231553 65 125 0.0 2.6 0.00 0.00 0.00 39 1013.6
20260509230044 65 123 0.9 2.6 0.00 0.00 0.00 38 1013.5
20260509224543 65 267 0.0 5.2 0.00 0.00 0.00 38 1013.6
20260509223145 65 213 2.6 7.0 0.00 0.00 0.00 39 1013.7
20260509221542 65 321 0.0 4.3 0.00 0.00 0.00 36 1013.5
20260509220041 65 236 3.5 7.8 0.00 0.00 0.00 36 1013.7
20260509214540 65 180 1.7 4.3 0.00 0.00 0.00 36 1013.8
20260509213039 65 194 1.7 6.1 0.00 0.00 0.00 36 1013.8
20260509211545 64 125 2.6 5.2 0.00 0.00 0.00 36 1014.0
20260509210040 64 20 1.7 4.3 0.00 0.00 0.00 35 1013.9
20260509204536 64 257 1.7 7.0 0.00 0.00 0.00 35 1013.9
20260509203036 64 259 2.6 6.1 0.00 0.00 0.00 35 1013.8
20260509201535 64 279 2.6 5.2 0.00 0.00 0.00 35 1013.7
20260509200038 63 72 3.5 7.0 0.00 0.00 0.00 35 1013.7
20260509194535 63 67 1.7 6.1 0.00 0.00 0.00 35 1013.8
20260509193033 63 236 1.7 5.2 0.00 0.00 0.00 35 1013.9
20260509191532 63 333 2.6 6.1 0.00 0.00 0.00 36 1013.8
20260509190031 63 315 0.0 3.5 0.00 0.00 0.00 36 1013.8
20260509184538 63 268 2.6 4.3 0.00 0.00 0.00 36 1013.7
20260509183030 63 345 2.6 6.1 0.00 0.00 0.00 35 1013.7
20260509181527 63 244 0.0 6.1 0.00 0.00 0.00 36 1013.5
20260509180025 63 275 0.9 6.1 0.00 0.00 0.00 36 1013.4
20260509174532 63 278 2.6 7.0 0.00 0.00 0.00 37 1013.4
20260509173022 63 15 1.7 5.2 0.00 0.00 0.00 37 1013.3
20260509171521 63 17 0.0 5.2 0.00 0.00 0.00 37 1013.2
20260509170020 62 297 2.6 7.0 0.00 0.00 0.00 37 1013.2
20260509164519 62 325 2.6 6.1 0.00 0.00 0.00 38 1013.2
20260509163027 61 243 2.6 7.8 0.00 0.00 0.00 38 1013.1
20260509161518 62 298 4.3 7.0 0.00 0.00 0.00 38 1013.0
20260509160015 62 246 2.6 5.2 0.00 0.00 0.00 40 1012.8
20260509154513 61 317 0.9 5.2 0.00 0.00 0.00 39 1012.7
20260509153009 60 355 4.3 8.7 0.00 0.00 0.00 43 1012.6
20260509151506 58 355 1.7 7.8 0.00 0.00 0.00 49 1012.6
20260509150002 56 319 1.7 3.5 0.00 0.00 0.00 52 1012.6
20260509144604 55 282 0.9 4.3 0.00 0.00 0.00 55 1012.5
20260509143100 53 305 1.7 4.3 0.00 0.00 0.00 57 1012.5
20260509141608 52 296 1.7 4.3 0.00 0.00 0.00 58 1012.4
20260509140103 51 295 1.7 4.3 0.00 0.00 0.00 59 1012.3
20260509134557 51 300 1.7 4.3 0.00 0.00 0.00 60 1012.2
20260509133055 50 308 1.7 4.3 0.00 0.00 0.00 60 1012.1
20260509131553 50 348 0.9 4.3 0.00 0.00 0.00 60 1011.9
20260509130051 49 325 1.7 4.3 0.00 0.00 0.00 60 1011.9
20260509124557 49 347 0.9 2.6 0.00 0.00 0.00 60 1011.6
20260509123055 49 42 0.9 3.5 0.00 0.00 0.00 60 1011.3